TA6AIA-13 Weather Reports


Display with metric or nautical units.
time (UTC)temp
F
wind
direction
speed
MPH
gust
MPH
rain 1hr
in
rain 24hr
in
rain mn
in
humidity
%
barometer
mb
20260508090004 72 270 0.0 0.0 0.00 0.00 0.00 81 1020.1
20260508083005 68 270 0.0 0.0 0.00 0.00 0.00 10 1020.2
20260508080005 66 270 0.0 0.0 0.00 0.00 0.00 10 1020.2
20260508070004 65 270 0.0 0.0 0.00 0.00 0.00 10 1020.2
20260508063005 62 270 0.0 0.0 0.00 0.00 0.00 10 1020.5
20260508060002 63 315 0.0 0.0 0.00 0.00 0.00 10 1020.4
20260508053004 61 270 0.0 0.0 0.00 0.00 0.00 10 1020.5
20260508050005 59 315 0.0 0.0 0.00 0.00 0.00 10 1020.5
20260508043004 55 270 0.0 0.0 0.00 0.00 0.00 10 1020.3
20260508040004 53 270 0.0 0.0 0.00 0.00 0.00 10 1020.2
20260508033005 50 270 0.0 0.0 0.00 0.00 0.00 10 1020.0
20260508030004 49 270 0.0 0.0 0.00 0.00 0.00 10 1019.8
20260508023005 49 270 0.0 0.0 0.00 0.00 0.00 10 1019.8
20260508020003 50 270 0.0 0.0 0.00 0.00 0.00 10 1019.8
20260508013003 50 270 0.0 0.0 0.00 0.00 0.00 10 1019.7
20260508010004 51 270 0.0 0.0 0.00 0.00 0.00 10 1019.8
20260508003003 51 270 0.0 0.0 0.00 0.00 0.00 10 1019.8
20260508000004 53 270 0.0 0.0 0.00 0.00 0.00 10 1019.7
20260507233003 52 270 0.0 0.0 0.00 0.00 0.00 10 1019.7
20260507230004 52 270 0.0 0.0 0.00 0.00 0.00 10 1019.6
20260507223003 54 270 0.0 0.0 0.00 0.00 0.00 10 1019.6
20260507220004 54 315 0.0 0.0 0.00 0.00 0.00 10 1019.7
20260507213005 53 270 0.0 0.0 0.00 0.00 0.00 10 1019.7
20260507210005 52 315 0.0 0.0 0.00 0.00 0.00 10 1019.8
20260507203003 53 270 0.0 0.0 0.00 0.00 0.00 10 1019.8
20260507200004 54 270 0.0 0.0 0.00 0.00 0.00 10 1019.9
20260507193002 55 270 0.0 0.0 0.00 0.00 0.00 10 1019.9
20260507190004 55 270 0.0 0.0 0.00 0.00 0.00 10 1020.0
20260507183002 56 270 0.0 0.0 0.00 0.00 0.00 10 1020.1
20260507180002 56 270 0.0 0.0 0.00 0.00 0.00 10 1020.1
20260507173003 58 270 0.0 0.0 0.00 0.00 0.00 10 1020.1
20260507171301 59 270 0.0 0.0 0.00 0.00 0.00 10 1020.1
20260507165811 60 270 0.0 0.0 0.00 0.00 0.00 10 1020.1
20260507164301 61 270 0.0 0.0 0.00 0.00 0.00 10 1019.9
20260507162821 61 270 0.0 0.0 0.00 0.00 0.00 10 1019.8
20260507160003 61 270 0.0 0.0 0.00 0.00 0.00 10 1019.9
20260507153005 61 270 0.0 0.0 0.00 0.00 0.00 10 1020.0
20260507150004 62 270 0.0 0.0 0.00 0.00 0.00 10 1020.2
20260507143212 63 270 0.0 0.0 0.00 0.00 0.00 10 1020.2
20260507130003 64 270 0.0 0.0 0.00 0.00 0.00 10 1020.3
20260507123003 65 270 0.0 0.0 0.00 0.00 0.00 10 1020.3
20260507120004 74 270 0.0 0.0 0.00 0.00 0.00 77 1020.8
20260507113003 69 270 0.0 0.0 0.00 0.00 0.00 10 1021.0
20260507110003 66 270 0.0 0.0 0.00 0.00 0.00 10 1021.2
20260507103003 62 270 0.0 0.0 0.00 0.00 0.00 10 1021.3
20260507100004 63 270 0.0 0.0 0.00 0.00 0.00 10 1021.3
20260507093003 63 315 0.0 0.0 0.00 0.00 0.00 10 1021.4